Torna al catalogo

FLOCK 4Q 30

AttivoScienzaPO
NORAD 58286·PAYLOAD·🇺🇸 United States

Lanciato Nov 11, 2023 da Vandenberg Space Force Base

Loading…

Prossimi Passaggi (prossime 24 ore)

TLE

AggiornatoSource: Space-Track

Epoca: Sep 14, 2026, 05:10 UTC

1 58286U 23174AG  26257.21545297  .00667593  19405-3  15794-2 0  9999
2 58286  97.3785 355.0147 0007119 263.5165  96.5301 15.96744996159796

Traccia FLOCK 4Q 30 in tempo reale con AllMySat

Download on the App Store